KF5RM Weather Reports


time (UTC)temp
C
wind
direction
speed
KPH
gust
KPH
rain 1hr
cm
rain 24hr
cm
rain mn
cm
humidity
%
barometer
mb
20260510144004 27 0 0.0 0.0 0.00 0.00 0.00 79 1013.3
20260510143504 27 0 0.0 0.0 0.00 0.00 0.00 80 1013.4
20260510143004 27 0 0.0 0.0 0.00 0.00 0.00 81 1013.4
20260510142003 27 0 0.0 0.0 0.00 0.00 0.00 82 1013.5
20260510141503 27 0 0.0 0.0 0.00 0.00 0.00 83 1013.4
20260510141003 26 0 0.0 0.0 0.00 0.00 0.00 83 1013.4
20260510140503 26 0 0.0 0.0 0.00 0.00 0.00 84 1013.3
20260510140004 26 0 0.0 0.0 0.00 0.00 0.00 84 1013.4
20260510135503 26 0 0.0 0.0 0.00 0.00 0.00 84 1013.3
20260510134503 26 0 0.0 0.0 0.00 0.00 0.00 85 1013.3
20260510134003 26 0 0.0 0.0 0.00 0.00 0.00 85 1013.3
20260510133503 26 0 0.0 0.0 0.00 0.00 0.00 86 1013.2
20260510133004 25 0 0.0 0.0 0.00 0.00 0.00 87 1013.2
20260510132503 25 0 0.0 0.0 0.00 0.00 0.00 87 1013.1
20260510132003 25 0 0.0 0.0 0.00 0.00 0.00 89 1013.0
20260510131503 25 0 0.0 0.0 0.00 0.00 0.00 90 1012.9
20260510130503 24 0 0.0 0.0 0.00 0.00 0.00 90 1013.0
20260510125503 24 0 0.0 0.0 0.00 0.00 0.00 90 1012.8
20260510125004 24 0 0.0 0.0 0.00 0.00 0.00 90 1012.7
20260510124504 24 0 0.0 0.0 0.00 0.00 0.00 90 1012.7
20260510124004 24 0 0.0 0.0 0.00 0.00 0.00 90 1012.6
20260510123503 24 0 0.0 0.0 0.00 0.00 0.00 91 1012.6
20260510123004 23 0 0.0 0.0 0.00 0.00 0.00 92 1012.5
20260510122504 23 0 0.0 0.0 0.00 0.00 0.00 92 1012.5
20260510122003 23 0 0.0 0.0 0.00 0.00 0.00 93 1012.4
20260510121504 23 0 0.0 0.0 0.00 0.00 0.00 93 1012.3
20260510121004 23 0 0.0 0.0 0.00 0.00 0.00 93 1012.3
20260510120503 23 0 0.0 0.0 0.00 0.00 0.00 93 1012.4
20260510120004 23 0 0.0 0.0 0.00 0.00 0.00 92 1012.3
20260510115003 23 0 0.0 0.0 0.00 0.00 0.00 92 1012.2
20260510114504 23 0 0.0 0.0 0.00 0.00 0.00 92 1012.2
20260510114003 23 0 0.0 0.0 0.00 0.00 0.00 92 1012.2
20260510113503 23 0 0.0 0.0 0.00 0.00 0.00 92 1012.1
20260510113003 23 0 0.0 0.0 0.00 0.00 0.00 92 1012.1
20260510112504 23 0 0.0 0.0 0.00 0.00 0.00 92 1012.1
20260510111503 23 0 0.0 0.0 0.00 0.00 0.00 91 1012.2
20260510111004 23 0 0.0 0.0 0.00 0.00 0.00 91 1012.2
20260510110503 23 0 0.0 0.0 0.00 0.00 0.00 91 1012.3
20260510105503 23 0 0.0 0.0 0.00 0.00 0.00 91 1012.2
20260510104503 23 0 0.0 0.0 0.00 0.00 0.00 91 1012.3
20260510104003 23 0 0.0 0.0 0.00 0.00 0.00 90 1012.3
20260510103004 23 0 0.0 0.0 0.00 0.00 0.00 90 1012.3
20260510102504 23 0 0.0 0.0 0.00 0.00 0.00 90 1012.4
20260510102004 23 0 0.0 0.0 0.00 0.00 0.00 90 1012.3
20260510101504 23 0 0.0 0.0 0.00 0.00 0.00 89 1012.3
20260510100504 23 0 0.0 0.0 0.00 0.00 0.00 89 1012.3
20260510100004 23 0 0.0 0.0 0.00 0.00 0.00 89 1012.2
20260510095504 23 0 0.0 0.0 0.00 0.00 0.00 88 1012.3
20260510095004 23 0 0.0 0.0 0.00 0.00 0.00 88 1012.3
20260510094503 23 0 0.0 0.0 0.00 0.00 0.00 88 1012.2
20260510094004 23 0 0.0 0.0 0.00 0.00 0.00 88 1012.2
20260510093503 23 0 0.0 0.0 0.00 0.00 0.00 88 1012.2
20260510093004 24 0 0.0 0.0 0.00 0.00 0.00 88 1012.2
20260510092503 24 0 0.0 0.0 0.00 0.00 0.00 87 1012.1
20260510092004 24 0 0.0 0.0 0.00 0.00 0.00 87 1012.1
20260510091503 24 0 0.0 0.0 0.00 0.00 0.00 87 1012.2
20260510091003 24 0 0.0 0.0 0.00 0.00 0.00 87 1012.4
20260510090503 24 0 0.0 0.0 0.00 0.00 0.00 86 1012.5
20260510085504 24 0 0.0 0.0 0.00 0.00 0.00 86 1012.5
20260510085003 24 0 0.0 0.0 0.00 0.00 0.00 85 1012.4
20260510084504 24 0 0.0 0.0 0.00 0.00 0.00 85 1012.3
20260510083503 24 0 0.0 0.0 0.00 0.00 0.00 84 1012.4
20260510083004 24 0 0.0 0.0 0.00 0.00 0.00 84 1012.3
20260510082503 24 0 0.0 0.0 0.00 0.00 0.00 84 1012.3
20260510081504 25 0 0.0 0.0 0.00 0.00 0.00 84 1012.4
20260510081004 25 0 0.0 0.0 0.00 0.03 0.00 83 1012.5
20260510080504 25 0 0.0 0.0 0.00 0.03 0.00 83 1012.6
20260510075504 25 0 0.0 0.0 0.00 0.05 0.00 83 1012.7
20260510075004 25 0 0.0 0.0 0.00 0.10 0.00 82 1012.6
20260510074004 25 0 0.0 0.0 0.00 0.18 0.00 82 1012.7
20260510073503 25 0 0.0 0.0 0.00 0.28 0.00 82 1012.7
20260510073004 25 0 0.0 0.0 0.00 0.30 0.00 81 1012.7
20260510072004 25 0 0.0 0.0 0.00 0.33 0.00 81 1012.7
20260510071503 25 0 0.0 0.0 0.00 0.36 0.00 81 1012.7
20260510070503 25 0 0.0 0.0 0.00 0.36 0.00 80 1012.7
20260510070003 25 0 0.0 0.0 0.00 0.36 0.00 80 1012.6
20260510065503 25 0 0.0 0.0 0.00 0.36 0.00 79 1012.7
20260510065002 25 0 0.0 0.0 0.00 0.36 0.00 79 1012.7
20260510064503 25 0 0.0 0.0 0.00 0.36 0.00 78 1012.7
20260510064002 25 0 0.0 0.0 0.00 0.36 0.00 78 1012.6
20260510063502 25 0 0.0 0.0 0.00 0.36 0.00 78 1012.6
20260510063003 25 0 0.0 0.0 0.00 0.36 0.00 78 1012.7
20260510062502 25 0 0.0 0.0 0.00 0.36 0.00 78 1012.8
20260510062002 25 0 0.0 0.0 0.00 0.36 0.00 78 1012.7
20260510061502 25 0 0.0 0.0 0.00 0.36 0.00 78 1012.8
20260510060502 26 0 0.0 0.0 0.00 0.36 0.00 78 1012.8
20260510060003 26 0 0.0 0.0 0.00 0.36 0.00 79 1012.9
20260510055502 26 0 0.0 0.0 0.00 0.36 0.00 79 1012.8
20260510055003 26 0 0.0 0.0 0.00 0.36 0.00 79 1012.7
20260510054502 26 0 0.0 0.0 0.00 0.36 0.00 78 1012.8
20260510054003 26 0 0.0 0.0 0.00 0.36 0.00 78 1012.7
20260510053502 26 0 0.0 0.0 0.00 0.36 0.00 78 1012.5
20260510053003 26 0 0.0 0.0 0.00 0.36 0.00 78 1012.5
20260510052503 26 0 0.0 0.0 0.00 0.36 0.00 78 1012.3
20260510052003 26 0 0.0 0.0 0.00 0.36 0.00 77 1012.4
20260510051503 26 0 0.0 0.0 0.00 0.36 0.00 77 1012.4
20260510051003 26 0 0.0 0.0 0.00 0.36 0.00 77 1012.5
20260510050503 26 0 0.0 0.0 0.00 0.36 0.00 76 1012.3
20260510050004 26 0 0.0 0.0 0.00 0.36 0.00 76 1012.3
20260510044502 26 0 0.0 0.0 0.00 0.36 0.36 76 1012.1
20260510044003 27 0 0.0 0.0 0.00 0.36 0.36 75 1012.2
20260510043002 27 0 0.0 0.0 0.00 0.36 0.36 75 1012.4
20260510042502 27 0 0.0 0.0 0.00 0.36 0.36 74 1012.5
20260510042002 27 0 0.0 0.0 0.00 0.36 0.36 74 1012.5
20260510041503 27 0 0.0 0.0 0.00 0.36 0.36 73 1012.5
20260510041003 27 0 0.0 0.0 0.00 0.36 0.36 72 1012.5
20260510040503 27 0 0.0 0.0 0.00 0.36 0.36 71 1012.5
20260510040003 27 0 0.0 0.0 0.00 0.36 0.36 71 1012.4
20260510035002 28 140 0.0 17.7 0.00 0.36 0.36 69 1012.4
20260510034502 28 0 0.0 0.0 0.00 0.36 0.36 68 1012.3
20260510034002 28 0 0.0 0.0 0.00 0.36 0.36 67 1012.3
20260510033502 28 0 0.0 0.0 0.00 0.36 0.36 66 1012.2
20260510033003 28 94 0.0 1.6 0.00 0.36 0.36 65 1012.3
20260510032002 28 142 0.0 8.0 0.00 0.36 0.36 64 1012.0
20260510031503 28 0 0.0 0.0 0.00 0.36 0.36 63 1011.8
20260510030503 28 0 0.0 0.0 0.00 0.36 0.36 62 1011.6
20260510030004 29 0 0.0 0.0 0.00 0.36 0.36 61 1011.6
20260510025502 29 0 0.0 0.0 0.00 0.36 0.36 61 1011.5
20260510025002 29 0 0.0 0.0 0.00 0.36 0.36 61 1011.3
20260510024502 29 0 0.0 0.0 0.00 0.36 0.36 60 1011.2
20260510024003 29 0 0.0 0.0 0.00 0.36 0.36 60 1011.2
20260510023502 29 0 0.0 0.0 0.00 0.36 0.36 60 1011.1
20260510022502 29 109 0.0 1.6 0.00 0.36 0.36 59 1011.0
20260510022003 30 0 0.0 0.0 0.00 0.36 0.36 59 1010.9
20260510021003 30 0 0.0 0.0 0.00 0.36 0.36 59 1010.7
20260510020503 30 0 0.0 0.0 0.00 0.36 0.36 58 1010.6
20260510015003 30 0 0.0 0.0 0.00 0.36 0.36 56 1010.2
20260510014503 30 0 0.0 0.0 0.00 0.36 0.36 56 1010.1
20260510014003 30 0 0.0 0.0 0.00 0.36 0.36 55 1010.0
20260510013502 30 0 0.0 0.0 0.00 0.36 0.36 54 1009.9
20260510013003 30 0 1.6 0.0 0.00 0.36 0.36 53 1009.9
20260510012503 31 105 3.2 12.9 0.00 0.36 0.36 53 1009.9
20260510012002 31 118 1.6 12.9 0.00 0.36 0.36 52 1009.8
20260510011503 31 121 0.0 11.3 0.00 0.36 0.36 52 1009.6
20260510011003 31 123 0.0 8.0 0.00 0.36 0.36 52 1009.5
20260510010503 31 105 0.0 3.2 0.00 0.36 0.36 53 1009.4
20260510010003 31 0 0.0 0.0 0.00 0.36 0.36 53 1009.5
20260510005503 31 0 0.0 0.0 0.00 0.36 0.36 53 1009.4
20260510005003 31 0 0.0 0.0 0.00 0.36 0.36 53 1009.3
20260510004503 31 110 0.0 14.5 0.00 0.36 0.36 52 1009.3
20260510004003 31 110 0.0 14.5 0.00 0.36 0.36 51 1009.1
20260510003502 31 140 0.0 6.4 0.00 0.36 0.36 50 1009.2
20260510003004 32 146 0.0 6.4 0.00 0.36 0.36 50 1009.3
20260510002503 32 0 0.0 0.0 0.00 0.36 0.36 50 1009.3
20260510002002 32 0 1.6 0.0 0.00 0.36 0.36 49 1009.0
20260510001503 32 119 1.6 17.7 0.00 0.36 0.36 49 1009.0
20260510001002 32 119 0.0 17.7 0.00 0.36 0.36 49 1009.1
20260510000503 32 102 1.6 14.5 0.00 0.36 0.36 49 1009.1
20260510000003 32 101 1.6 14.5 0.00 0.36 0.36 50 1009.1
20260509235503 32 104 1.6 9.7 0.00 0.36 0.36 49 1009.2
20260509235002 32 105 1.6 9.7 0.00 0.36 0.36 50 1009.2
20260509234502 32 125 3.2 11.3 0.00 0.36 0.36 49 1009.1
20260509234003 32 123 1.6 16.1 0.00 0.36 0.36 49 1009.2
20260509233503 32 122 0.0 16.1 0.00 0.36 0.36 48 1009.1
20260509233004 32 116 0.0 6.4 0.00 0.36 0.36 47 1009.2
20260509232503 32 117 0.0 1.6 0.00 0.36 0.36 49 1009.0
20260509232003 32 133 0.0 9.7 0.00 0.36 0.36 49 1009.2
20260509231503 32 122 0.0 11.3 0.00 0.36 0.36 48 1009.2
20260509230004 33 116 0.0 8.0 0.00 0.36 0.36 47 1009.2
20260509225503 32 116 0.0 8.0 0.00 0.36 0.36 48 1009.2
20260509225003 32 0 0.0 0.0 0.00 0.36 0.36 47 1009.2
20260509224503 33 0 0.0 0.0 0.00 0.36 0.36 47 1009.3
20260509223502 32 147 0.0 8.0 0.00 0.36 0.36 47 1009.2
20260509223004 32 127 0.0 9.7 0.00 0.36 0.36 47 1009.3
20260509222502 32 120 0.0 9.7 0.00 0.36 0.36 48 1009.3
20260509221503 32 0 0.0 0.0 0.00 0.36 0.36 48 1009.4
20260509221003 32 0 0.0 0.0 0.00 0.36 0.36 47 1009.5
20260509220503 32 0 0.0 0.0 0.00 0.36 0.36 47 1009.7
20260509220003 32 0 0.0 0.0 0.00 0.36 0.36 48 1009.7
20260509215003 33 0 0.0 0.0 0.00 0.36 0.36 48 1009.6
20260509214503 33 0 0.0 0.0 0.00 0.36 0.36 48 1009.6
20260509214002 32 0 0.0 0.0 0.00 0.36 0.36 49 1009.6
20260509213003 32 0 0.0 0.0 0.00 0.36 0.36 47 1009.8
20260509212503 32 0 0.0 0.0 0.00 0.36 0.36 48 1009.8
20260509212002 32 145 0.0 4.8 0.00 0.36 0.36 48 1009.9
20260509211503 33 145 0.0 4.8 0.00 0.36 0.36 47 1009.9
20260509211003 33 0 0.0 0.0 0.00 0.36 0.36 46 1010.1
20260509210004 33 0 0.0 0.0 0.00 0.36 0.36 47 1010.1
20260509205503 32 0 0.0 0.0 0.00 0.36 0.36 49 1010.4
20260509205002 32 0 0.0 0.0 0.00 0.36 0.36 48 1010.5
20260509204503 33 0 0.0 0.0 0.00 0.36 0.36 49 1010.4
20260509204003 32 0 0.0 0.0 0.00 0.36 0.36 50 1010.5
20260509203004 32 268 0.0 6.4 0.00 0.36 0.36 50 1010.9
20260509202503 32 268 0.0 6.4 0.00 0.36 0.36 50 1011.0
20260509202003 32 316 0.0 1.6 0.00 0.36 0.36 52 1010.9
20260509201003 32 0 0.0 0.0 0.00 0.36 0.36 51 1011.2
20260509200503 31 0 0.0 0.0 0.00 0.36 0.36 52 1011.2
20260509200003 31 261 1.6 6.4 0.00 0.36 0.36 54 1011.3
20260509195503 31 303 1.6 8.0 0.00 0.36 0.36 52 1011.4
20260509195003 31 312 0.0 8.0 0.00 0.36 0.36 53 1011.4
20260509194503 31 304 0.0 6.4 0.00 0.36 0.36 52 1011.6
20260509194003 31 0 0.0 0.0 0.00 0.36 0.36 53 1011.6
20260509193502 31 0 0.0 0.0 0.00 0.36 0.36 53 1011.7
20260509192502 31 0 0.0 0.0 0.00 0.36 0.36 54 1011.9
20260509192003 31 0 0.0 0.0 0.00 0.36 0.36 55 1011.9
20260509191503 30 0 0.0 0.0 0.00 0.36 0.36 54 1011.9
20260509191002 30 0 0.0 0.0 0.00 0.36 0.36 55 1012.0
20260509190503 31 0 0.0 0.0 0.00 0.36 0.36 55 1012.1
20260509190004 30 0 0.0 0.0 0.00 0.36 0.36 55 1012.1
20260509185503 30 0 0.0 0.0 0.00 0.36 0.36 54 1012.3
20260509185003 31 0 0.0 0.0 0.00 0.36 0.36 54 1012.3
20260509184502 31 0 0.0 0.0 0.00 0.36 0.36 56 1012.3
20260509184003 31 0 0.0 0.0 0.00 0.36 0.36 56 1012.5
20260509183003 30 0 0.0 0.0 0.00 0.36 0.36 56 1012.9
20260509182503 30 0 0.0 0.0 0.00 0.36 0.36 57 1012.9
20260509182003 30 0 0.0 0.0 0.00 0.36 0.36 57 1013.0
20260509181503 30 0 0.0 0.0 0.00 0.36 0.36 57 1013.2
20260509181003 30 0 0.0 0.0 0.00 0.36 0.36 57 1013.2
20260509180503 30 0 0.0 0.0 0.00 0.36 0.36 57 1013.1
20260509180003 30 0 0.0 0.0 0.00 0.36 0.36 58 1013.2
20260509175502 30 0 0.0 0.0 0.00 0.36 0.36 60 1013.1
20260509175003 29 0 0.0 0.0 0.00 0.36 0.36 61 1013.2
20260509174503 29 0 0.0 0.0 0.00 0.36 0.36 59 1013.4
20260509174003 29 0 0.0 0.0 0.00 0.36 0.36 60 1013.4
20260509173503 28 0 0.0 0.0 0.00 0.36 0.36 60 1013.4
20260509173003 29 0 0.0 0.0 0.00 0.36 0.36 60 1013.6
20260509172502 29 0 0.0 0.0 0.00 0.36 0.36 61 1013.6
20260509172003 29 0 0.0 0.0 0.00 0.36 0.36 61 1013.7
20260509171503 28 0 0.0 0.0 0.00 0.36 0.36 62 1013.8
20260509171004 28 0 0.0 0.0 0.00 0.36 0.36 64 1013.9
20260509170503 28 0 0.0 0.0 0.00 0.36 0.36 64 1014.0
20260509165503 28 0 0.0 0.0 0.00 0.36 0.36 63 1014.2
20260509165003 27 0 0.0 0.0 0.00 0.36 0.36 68 1014.2
20260509164003 27 0 0.0 0.0 0.00 0.36 0.36 69 1014.2
20260509163503 27 0 0.0 0.0 0.00 0.36 0.36 69 1014.2
20260509163004 27 0 0.0 0.0 0.00 0.36 0.36 69 1014.2
20260509162503 27 0 0.0 0.0 0.00 0.36 0.36 68 1014.2
20260509161503 27 0 0.0 0.0 0.00 0.36 0.36 72 1014.1
20260509160004 26 0 0.0 0.0 0.00 0.36 0.36 73 1014.2
20260509155503 26 0 0.0 0.0 0.00 0.36 0.36 74 1014.2
20260509155003 26 0 0.0 0.0 0.00 0.36 0.36 72 1014.2
20260509154004 26 0 0.0 0.0 0.00 0.36 0.36 74 1014.1
20260509153503 26 0 0.0 0.0 0.00 0.36 0.36 74 1014.1
20260509153003 26 0 0.0 0.0 0.00 0.36 0.36 74 1014.0
20260509152002 25 0 0.0 0.0 0.00 0.36 0.36 75 1014.0
20260509151503 25 0 0.0 0.0 0.00 0.36 0.36 75 1013.9
20260509151003 26 0 0.0 0.0 0.00 0.36 0.36 75 1013.9
20260509150503 25 0 0.0 0.0 0.00 0.36 0.36 77 1013.9
20260509150004 25 0 0.0 0.0 0.00 0.36 0.36 76 1013.8
20260509145503 25 0 0.0 0.0 0.00 0.36 0.36 76 1014.0
20260509145003 25 0 0.0 0.0 0.00 0.36 0.36 78 1014.0
20260509144503 25 0 0.0 0.0 0.00 0.36 0.36 78 1014.2